Regional Weather Roundup
Issued by NWS Portland, ME

Current Version | Previous Version | Graphics & Text | Print | Product List | Glossary On
Versions: 1 2 3 4 5 6 7 8 9 10 11 12 13 14 15 16 17 18 19 20 21 22 23 24 25 26 27 28 29 30 31 32 33 34 35 36 37 38 39 40 41 42 43 44 45 46 47 48 49 50
000
ASUS41 KGYX 070405
RWRGYX
WEATHER ROUNDUP FOR MAINE AND NEW HAMPSHIRE
NATIONAL WEATHER SERVICE GRAY ME
1200 AM EDT SUN JUN 07 2020

MEZ002-005-006-010-012-015-018-020-021-024-026-027-029-070500-
MAINE

CITY           SKY/WX    TMP DP  RH WIND       PRES   REMARKS
PORTLAND       CLOUDY    65  61  87 NW3       29.72R
SANFORD        CLOUDY    61  58  90 CALM      29.73R
BAR HARBOR     MOCLDY    58  57  97 N5        29.69S
WISCASSET      MOCLDY    61  57  87 CALM      29.73R
ROCKLAND       PTCLDY    60  58  92 VRB5      29.70R
FRYEBURG       MOCLDY    59  54  83 NW3       29.74R
LEWISTONAUBURN CLOUDY    62  57  83 N7        29.73R
AUGUSTA        PTCLDY    61  53  75 N14       29.74R
WATERVILLE     PTCLDY    59  54  83 N10       29.71R
BANGOR         MOCLDY    59  57  93 N8        29.72R
GREENVILLE       N/A     52  51  97 NW9       29.75R
MILLINOCKET    CLOUDY    57  53  86 N9G17     29.75R
HOULTON        LGT RAIN  50  47  89 NE7       29.75R
PRESQUE ISLE   LGT RAIN  50  49  96 NE9       29.80R FOG
FRENCHVILLE    CLOUDY    48  46  93 N7        29.81R FOG
CARIBOU        CLOUDY    50  46  86 NE5       29.79R
$$

NHZ002-005-008-009-011-012-014-070500-
NEW HAMPSHIRE

CITY           SKY/WX    TMP DP  RH WIND       PRES   REMARKS
PORTSMOUTH     PTCLDY    61  57  89 NW7       29.70F
ROCHESTER      CLOUDY    59  55  87 CALM      29.73R
NASHUA         CLEAR     59  59 100 W7        29.76R
MANCHESTER     PTCLDY    61  56  83 NW8       29.73S
CONCORD        CLEAR     59  55  87 W8        29.76R
LACONIA        PTCLDY    60  53  77 W8        29.76R
PLYMOUTH       FAIR      58  52  79 W14G21    29.77S
BERLIN         MOCLDY    59  51  75 CALM      29.79R
WHITEFIELD     CLOUDY    58  51  78 N3        29.80R
JAFFREY        CLEAR     56  50  80 VRB3      29.79S
KEENE          CLEAR     54  54 100 CALM      29.81R
LEBANON        CLOUDY    60  52  74 CALM      29.81R
MT WASHINGTON  FOG       39  39 100 NW21        N/A  VSB 0
$$

VTZ005-007-008-070500-
VERMONT

CITY           SKY/WX    TMP DP  RH WIND       PRES   REMARKS
ST JOHNSBURY     N/A     58  51  78 MISG      29.80R
MONTPELIER     CLOUDY    56  52  86 NW7       29.87R
BURLINGTON     CLOUDY    57  54  89 NW5       29.87R
$$

MAZ007-012-024-CTZ003-RIZ002-NYZ038-NYZ072-070500-
SOUTHERN NEW ENGLAND AND NY

CITY           SKY/WX    TMP DP  RH WIND       PRES   REMARKS
BOSTON         PTCLDY    63  56  78 NW13      29.72F
WORCESTER      CLEAR     60  50  69 NW12      29.78F
NANTUCKET      MOCLDY    63  61  93 NW6       29.69R
PROVIDENCE     PTCLDY    65  55  70 NW10      29.75R
HARTFORD       CLEAR     64  45  49 N5        29.79R
ALBANY         PTCLDY    62  46  55 NW9       29.85R
NEW YORK CITY  PTCLDY    74  44  34 N10       29.80R
$$

ANZ081-ANZ082-ANZ150-NHZ014-MEZ023>029-070500-
COASTAL MARINE OBSERVATIONS

STATION/POSITION TIME  TEMP    WIND        PRES    WAVE
                       AIR SEA DIR/SP/G            HT/PER
                 (UTC) (F)     (DEG/KT/KT) (MB)    (FT/S)
MOUNT DESERT ROC 0300           10/ 14/ 15 1004.4F
ISLE OF SHOALS   0300   63     310/ 20/ 21 1005.3R
JEFFREYS LEDGE   0308      58                N/A     3/ 6
GEORGES BANK BUO 0350      50              1004.7F   4/ 7
$$

.............KEY..............
   WCI - WIND CHILL
   TC  - TEMPERATURE IN CELSIUS
   VSB - VISIBILITY IN MILES
   HX  - HEAT INDEX
   FAIR- INDICATES FEW OR NO CLOUDS BELOW 12,000 FT, WITH NO
         SIGNIFICANT WEATHER AND/OR OBSTRUCTIONS TO VISIBILITY.





USA.gov is the U.S. government's official web portal to all federal, state and local government web resources and services.